TimeHAST,TemperatureF,Dew PointF,Humidity,Sea Level PressureIn,VisibilityMPH,Wind Direction,Wind SpeedMPH,Gust SpeedMPH,PrecipitationIn,Events,Conditions,WindDirDegrees,DateUTC
12:16 AM,37.4,35.6,93,30.03,10.0,North,12.7,18.4,N/A,,Overcast,350,2012-12-04 10:16:00
12:36 AM,37.4,33.8,87,30.03,10.0,NNW,12.7,-,N/A,,Overcast,330,2012-12-04 10:36:00
12:56 AM,37.4,33.8,87,30.02,10.0,West,10.4,-,N/A,,Overcast,280,2012-12-04 10:56:00
1:16 AM,37.4,35.6,93,30.02,10.0,SW,10.4,-,N/A,,Overcast,220,2012-12-04 11:16:00
1:36 AM,37.4,35.6,93,30.02,10.0,SW,4.6,-,N/A,,Overcast,230,2012-12-04 11:36:00
1:56 AM,37.4,35.6,93,30.01,10.0,South,3.5,-,N/A,,Overcast,180,2012-12-04 11:56:00
2:16 AM,37.4,35.6,93,30.01,10.0,Calm,Calm,-,N/A,,Overcast,0,2012-12-04 12:16:00
2:36 AM,37.4,35.6,93,30.01,10.0,WSW,6.9,-,N/A,,Overcast,250,2012-12-04 12:36:00
2:56 AM,37.4,33.8,87,30.01,10.0,Calm,Calm,-,N/A,,Overcast,0,2012-12-04 12:56:00
3:16 AM,37.4,35.6,93,30.00,10.0,North,3.5,-,N/A,,Overcast,10,2012-12-04 13:16:00
3:36 AM,37.4,33.8,87,30.00,10.0,North,6.9,-,N/A,,Overcast,350,2012-12-04 13:36:00
3:56 AM,37.4,33.8,87,29.99,10.0,NW,4.6,-,N/A,,Overcast,320,2012-12-04 13:56:00
4:16 AM,35.6,33.8,93,29.98,10.0,Calm,Calm,-,N/A,,Mostly Cloudy,0,2012-12-04 14:16:00
4:36 AM,35.6,33.8,93,29.97,10.0,NW,4.6,-,N/A,,Overcast,310,2012-12-04 14:36:00
4:56 AM,35.6,33.8,93,29.96,10.0,West,5.8,-,N/A,,Mostly Cloudy,270,2012-12-04 14:56:00
5:16 AM,35.6,33.8,93,29.96,10.0,Calm,Calm,-,N/A,,Overcast,0,2012-12-04 15:16:00
5:36 AM,35.6,33.8,93,29.95,10.0,Calm,Calm,-,N/A,,Overcast,0,2012-12-04 15:36:00
5:56 AM,35.6,33.8,93,29.95,10.0,Calm,Calm,-,N/A,,Mostly Cloudy,0,2012-12-04 15:56:00
6:16 AM,35.6,33.8,93,29.95,10.0,Calm,Calm,-,N/A,,Overcast,0,2012-12-04 16:16:00
6:36 AM,35.6,33.8,93,29.95,10.0,Calm,Calm,-,N/A,,Overcast,0,2012-12-04 16:36:00
6:56 AM,35.6,33.8,93,29.95,10.0,WSW,4.6,-,N/A,,Overcast,250,2012-12-04 16:56:00
7:16 AM,37.4,32.0,81,29.95,10.0,Calm,Calm,-,N/A,,Overcast,0,2012-12-04 17:16:00
7:36 AM,37.4,32.0,81,29.95,10.0,Calm,Calm,-,N/A,,Overcast,0,2012-12-04 17:36:00
7:56 AM,37.4,30.2,75,29.95,10.0,West,5.8,-,N/A,,Overcast,270,2012-12-04 17:56:00
8:16 AM,35.6,32.0,87,29.95,10.0,North,3.5,-,N/A,,Overcast,350,2012-12-04 18:16:00
8:36 AM,37.4,32.0,81,29.95,10.0,North,10.4,-,N/A,,Overcast,360,2012-12-04 18:36:00
8:56 AM,35.6,33.8,93,29.94,10.0,North,11.5,-,N/A,,Mostly Cloudy,360,2012-12-04 18:56:00
9:16 AM,35.6,32.0,87,29.94,10.0,NW,4.6,-,N/A,,Overcast,320,2012-12-04 19:16:00
9:36 AM,35.6,30.2,81,29.93,10.0,Calm,Calm,-,N/A,,Overcast,0,2012-12-04 19:36:00
9:56 AM,35.6,30.2,81,29.93,10.0,WNW,4.6,-,N/A,,Overcast,300,2012-12-04 19:56:00
10:16 AM,37.4,30.2,75,29.93,10.0,NW,4.6,-,N/A,,Scattered Clouds,320,2012-12-04 20:16:00
10:36 AM,35.6,30.2,81,29.93,10.0,Calm,Calm,-,N/A,,Clear,0,2012-12-04 20:36:00
10:56 AM,35.6,30.2,81,29.92,10.0,South,3.5,-,N/A,,Partly Cloudy,190,2012-12-04 20:56:00
11:16 AM,35.6,30.2,81,29.92,10.0,Calm,Calm,-,N/A,,Partly Cloudy,0,2012-12-04 21:16:00
11:36 AM,35.6,30.2,81,29.92,10.0,WSW,3.5,-,N/A,,Clear,240,2012-12-04 21:36:00
11:56 AM,37.4,32.0,81,29.92,10.0,NW,4.6,-,N/A,,Clear,320,2012-12-04 21:56:00
12:16 PM,37.4,33.8,87,29.91,10.0,North,8.1,-,N/A,,Clear,350,2012-12-04 22:16:00
12:36 PM,37.4,32.0,81,29.91,10.0,NW,8.1,-,N/A,,Scattered Clouds,310,2012-12-04 22:36:00
12:56 PM,39.2,30.2,70,29.91,10.0,North,5.8,-,N/A,,Mostly Cloudy,350,2012-12-04 22:56:00
1:16 PM,39.2,32.0,75,29.91,10.0,Calm,Calm,-,N/A,,Partly Cloudy,0,2012-12-04 23:16:00
1:36 PM,39.2,32.0,75,29.90,10.0,NNW,8.1,-,N/A,,Mostly Cloudy,330,2012-12-04 23:36:00
1:56 PM,39.2,30.2,70,29.90,10.0,North,6.9,-,N/A,,Scattered Clouds,360,2012-12-04 23:56:00
2:16 PM,37.4,30.2,75,29.89,10.0,NNW,8.1,-,N/A,,Clear,340,2012-12-05 00:16:00
2:36 PM,39.2,30.2,70,29.89,10.0,NW,5.8,-,N/A,,Partly Cloudy,320,2012-12-05 00:36:00
2:56 PM,39.2,32.0,75,29.88,10.0,North,9.2,-,N/A,,Partly Cloudy,350,2012-12-05 00:56:00
3:16 PM,39.2,32.0,75,29.88,10.0,North,8.1,-,N/A,,Partly Cloudy,350,2012-12-05 01:16:00
3:36 PM,39.2,30.2,70,29.88,10.0,North,5.8,-,N/A,,Partly Cloudy,350,2012-12-05 01:36:00
3:56 PM,39.2,30.2,70,29.88,10.0,NW,9.2,-,N/A,,Scattered Clouds,310,2012-12-05 01:56:00
4:16 PM,37.4,28.4,70,29.88,10.0,NNW,6.9,-,N/A,,Scattered Clouds,330,2012-12-05 02:16:00
4:36 PM,35.6,28.4,75,29.88,10.0,NNW,4.6,-,N/A,,Partly Cloudy,330,2012-12-05 02:36:00
4:56 PM,35.6,30.2,81,29.88,10.0,North,6.9,-,N/A,,Partly Cloudy,350,2012-12-05 02:56:00
5:16 PM,35.6,30.2,81,29.89,10.0,SW,3.5,-,N/A,,Mostly Cloudy,220,2012-12-05 03:16:00
5:36 PM,37.4,28.4,70,29.89,10.0,WNW,10.4,-,N/A,,Mostly Cloudy,290,2012-12-05 03:36:00
5:56 PM,37.4,28.4,70,29.89,10.0,WSW,6.9,-,N/A,,Mostly Cloudy,250,2012-12-05 03:56:00
6:16 PM,35.6,30.2,81,29.89,10.0,Calm,Calm,-,N/A,,Mostly Cloudy,0,2012-12-05 04:16:00
6:36 PM,33.8,28.4,81,29.89,10.0,WNW,3.5,-,N/A,,Scattered Clouds,290,2012-12-05 04:36:00
6:56 PM,35.6,28.4,75,29.89,10.0,Calm,Calm,-,N/A,,Mostly Cloudy,0,2012-12-05 04:56:00
7:16 PM,35.6,28.4,75,29.89,10.0,WNW,3.5,-,N/A,,Mostly Cloudy,300,2012-12-05 05:16:00
7:36 PM,33.8,28.4,81,29.89,7.0,NW,9.2,-,N/A,,Mostly Cloudy,310,2012-12-05 05:36:00
7:56 PM,35.6,30.2,81,29.90,9.0,West,4.6,-,N/A,,Overcast,280,2012-12-05 05:56:00
8:16 PM,33.8,30.2,87,29.90,10.0,South,3.5,-,N/A,,Mostly Cloudy,190,2012-12-05 06:16:00
8:36 PM,33.8,32.0,93,29.90,10.0,Calm,Calm,-,N/A,,Overcast,0,2012-12-05 06:36:00
8:56 PM,35.6,32.0,87,29.90,10.0,SSE,4.6,-,N/A,,Overcast,160,2012-12-05 06:56:00
9:16 PM,35.6,32.0,87,29.90,10.0,Calm,Calm,-,N/A,,Overcast,0,2012-12-05 07:16:00
9:36 PM,33.8,30.2,87,29.90,10.0,WSW,6.9,-,N/A,,Overcast,250,2012-12-05 07:36:00
9:56 PM,35.6,30.2,81,29.90,10.0,Calm,Calm,-,N/A,,Overcast,0,2012-12-05 07:56:00
10:16 PM,33.8,30.2,87,29.90,10.0,Calm,Calm,-,N/A,,Overcast,0,2012-12-05 08:16:00
10:36 PM,33.8,30.2,87,29.91,9.0,NNW,8.1,-,N/A,,Overcast,330,2012-12-05 08:36:00
10:56 PM,33.8,30.2,87,29.91,3.0,Calm,Calm,-,N/A,,Overcast,0,2012-12-05 08:56:00
11:16 PM,33.8,30.2,87,29.91,10.0,WSW,4.6,-,N/A,,Overcast,240,2012-12-05 09:16:00
11:36 PM,33.8,30.2,87,29.91,10.0,WSW,10.4,-,N/A,,Overcast,240,2012-12-05 09:36:00
11:56 PM,33.8,32.0,93,29.91,10.0,West,10.4,-,N/A,,Overcast,270,2012-12-05 09:56:00